Overview Statistics Trail Chart Weather Telemetry Raw packets
 

This is the latest recevied weather packets stored in our database for station/object KI6SYE. If no packets are shown the sender has not sent any weather packets the latest 10 day(s).

<< 41 42 43 44 45 46 47 >>
Time Temp. Humidity Pressure Rain* Wind** Luminosity Snow
1788396627 22.22° C 76% 1013.9 hPa 0 mm - 119 W/m² -
1788396326 22.22° C 75% 1013.9 hPa 0 mm - 132 W/m² -
1788396022 22.78° C 75% 1014 hPa 0 mm - 144 W/m² -
1788395717 22.78° C 75% 1014.1 hPa 0 mm - 159 W/m² -
1788395413 22.78° C 76% 1014 hPa 0 mm - 174 W/m² -
1788395113 22.78° C 77% 1013.8 hPa 0 mm - 187 W/m² -
1788394808 22.78° C 76% 1013.9 hPa 0 mm - 200 W/m² -
1788394508 22.78° C 78% 1014 hPa 0 mm - 215 W/m² -
1788394207 22.78° C 78% 1014.1 hPa 0 mm - 231 W/m² -
1788393902 23.33° C 77% 1013.9 hPa 0 mm - 211 W/m² -
1788393600 23.33° C 77% 1013.8 hPa 0 mm - 263 W/m² -
1788393295 23.33° C 74% 1014 hPa 0 mm - 275 W/m² -
1788392990 22.78° C 76% 1014.1 hPa 0 mm - 292 W/m² -
1788392685 23.33° C 75% 1014 hPa 0 mm - 305 W/m² -
1788392384 22.78° C 75% 1014.3 hPa 0 mm - 321 W/m² -
1788392079 23.33° C 75% 1014.3 hPa 0 mm - 337 W/m² -
1788391778 23.33° C 75% 1014.2 hPa 0 mm - 350 W/m² -
1788391473 23.33° C 75% 1014.1 hPa 0 mm - 365 W/m² -
1788391182 23.33° C 74% 1014.5 hPa 0 mm - 380 W/m² -
1788390867 23.33° C 75% 1014.3 hPa 0 mm - 395 W/m² -
1788390562 23.33° C 75% 1014 hPa 0 mm - 406 W/m² -
1788390262 23.33° C 75% 1014.4 hPa 0 mm - 424 W/m² -
1788389956 23.33° C 75% 1014.3 hPa 0 mm - 439 W/m² -
1788389651 23.33° C 75% 1014.4 hPa 0 mm - 452 W/m² -
1788389349 23.89° C 74% 1014.5 hPa 0 mm - 467 W/m² -

* Rain latest hour (hover to see other rain measurements)
** Current wind speed in m/s (hover to see current wind gust speed)